Home > Weather > Sandpoint > Past weeks

Flag for USA Past Weather in Sandpoint, Idaho, USA — Yesterday and Last 2 Weeks

Now
46 °F

Clear.


Feels Like: 46 °F
Forecast: 52 / 84 °F
Wind: No wind

Location: Sandpoint Airport

Current Time: Jun 27, 2016 at 4:30:40 AM

Latest Report: Jun 27, 2016 at 3:55 AM


Visibility: 10 mi

Pressure: 30.21 "Hg (27.96 "Hg at 636m altitude)

Humidity: 100%

Dew Point: 46 °F

Location of SandpointLocation

Past Weather in Sandpoint — Graph

°F

Sandpoint Temperature Yesterday

Maximum temperature yesterday: 75 °F (at 2:15 PM)
Minimum temperature yesterday: 43 °F (at 4:35 AM)
Average temperature yesterday: 55 °F

High & Low Weather Summary for the Past Weeks

 TemperatureHumidityPressure
High81 °F (Jun 20, 4:35 PM)100% (Jun 12, 3:20 AM)30.40 "Hg (Jun 12, 3:20 AM)
Low34 °F (Jun 15, 3:35 AM)23% (Jun 17, 3:15 PM)29.78 "Hg (Jun 13, 11:15 PM)
Average55 °F69%30.06 "Hg
* Reported Jun 12 3:20 AM — Jun 27 3:35 AM, Sandpoint, Weather by CustomWeather, © 2016

Note: Actual official high and low records may vary slightly from our data, if they occured in-between our weather recording intervals... More about our weather records

Advertising

Sandpoint Weather History for the Previous 24 Hours

Scroll right to see more
 ConditionsComfort  
Time TempWeatherWind HumidityBarometerVisibility
3:35 AM
Mon, Jun 27
46 °FClear.No wind100%30.20 "Hg10 mi
3:15 AM46 °FClear.No wind100%30.20 "Hg10 mi
2:55 AM48 °FClear.No wind94%30.20 "Hg10 mi
2:35 AM46 °FClear.No wind100%30.20 "Hg10 mi
2:15 AM48 °FClear.No wind94%30.20 "Hg10 mi
1:55 AM50 °FClear.No wind94%30.20 "Hg10 mi
1:35 AM50 °FClear.No wind94%30.20 "Hg10 mi
1:15 AM50 °FClear.No wind94%30.20 "Hg10 mi
12:55 AM50 °FClear.No wind94%30.20 "Hg10 mi
12:35 AM52 °FClear.No wind94%30.20 "Hg10 mi
12:15 AM52 °FClear.3 mph94%30.20 "Hg10 mi
11:55 PM
Sun, Jun 26
52 °FClear.No wind94%30.20 "Hg10 mi
11:35 PM52 °FClear.No wind94%30.20 "Hg10 mi
11:15 PM54 °FClear.No wind88%30.19 "Hg10 mi
10:55 PM54 °FClear.No wind88%30.19 "Hg10 mi
10:35 PM54 °FClear.No wind88%30.19 "Hg10 mi
10:15 PM55 °FClear.6 mph82%30.19 "Hg10 mi
9:55 PM55 °FClear.No wind82%30.19 "Hg10 mi
9:35 PM59 °FSunny.No wind77%30.19 "Hg10 mi
9:20 PM59 °FSunny.No wind77%30.19 "Hg10 mi
2:15 PM75 °FSunny.5 mph31%30.22 "Hg10 mi
1:55 PM73 °FSunny.3 mph33%30.22 "Hg10 mi
1:35 PM73 °FSunny.6 mph38%30.23 "Hg10 mi
1:15 PM72 °FSunny.No wind36%30.23 "Hg10 mi
12:55 PM72 °FSunny.No wind44%30.23 "Hg10 mi
12:35 PM72 °FSunny.No wind47%30.23 "Hg10 mi
12:15 PM70 °FSunny.3 mph53%30.23 "Hg10 mi
11:55 AM70 °FSunny.No wind53%30.24 "Hg10 mi
11:35 AM68 °FSunny.3 mph60%30.24 "Hg10 mi
10:55 AM64 °FSunny.3 mph64%30.25 "Hg10 mi
10:35 AM64 °FSunny.5 mph64%30.25 "Hg10 mi
9:55 AM64 °FSunny.6 mph64%30.25 "Hg10 mi
9:35 AM64 °FSunny.5 mph64%30.25 "Hg10 mi
8:55 AM63 °FSunny.9 mph68%30.25 "Hg10 mi
8:35 AM61 °FSunny.7 mph72%30.25 "Hg10 mi
8:15 AM59 °FSunny.5 mph77%30.25 "Hg10 mi
7:55 AM57 °FSunny.3 mph77%30.25 "Hg10 mi
7:35 AM54 °FSunny.No wind88%30.25 "Hg10 mi
7:15 AM54 °FSunny.No wind82%30.25 "Hg10 mi
6:55 AM52 °FSunny.No wind94%30.24 "Hg10 mi
6:35 AM50 °FSunny.No wind94%30.24 "Hg10 mi
6:15 AM46 °FSunny.No wind100%30.24 "Hg10 mi
5:55 AM45 °FSunny.No wind100%30.23 "Hg10 mi
5:35 AM43 °FClear.No wind100%30.23 "Hg10 mi
5:15 AM43 °FClear.No wind100%30.23 "Hg10 mi
4:55 AM43 °FClear.No wind100%30.23 "Hg10 mi
4:35 AM43 °FClear.No wind100%30.23 "Hg10 mi
4:15 AM45 °FClear.No wind100%30.22 "Hg10 mi
Weather by CustomWeather, © 2016

See weather overviewHow to use our weather pages